This is the latest recevied weather packets stored in our database for station/object 4S6DRJ-13. If no packets are shown the sender has not sent any weather packets the latest 10 day(s).
| Time | Temp. | Humidity | Pressure | Rain* | Wind** | Luminosity | Snow |
|---|---|---|---|---|---|---|---|
| 1788342323 | 30.56° C | 72% | 1007.8 hPa | 0 mm | 2.68 m/s, 274° | 123 W/m² | - |
| 1788342262 | 30.56° C | 72% | 1007.7 hPa | 0 mm | 2.68 m/s, 263° | 137 W/m² | - |
| 1788342201 | 31.11° C | 71% | 1007.5 hPa | 0 mm | 1.34 m/s, 234° | 145 W/m² | - |
| 1788342079 | 31.11° C | 71% | 1007.7 hPa | 0 mm | 0.89 m/s, 187° | 200 W/m² | - |
| 1788342018 | 31.11° C | 71% | 1007.7 hPa | 0 mm | 1.34 m/s, 285° | 234 W/m² | - |
| 1788341957 | 31.11° C | 70% | 1007.8 hPa | 0 mm | 1.34 m/s, 196° | 640 W/m² | - |
| 1788341896 | 31.11° C | 70% | 1007.7 hPa | 0 mm | 2.24 m/s, 210° | 236 W/m² | - |
| 1788341835 | 31.11° C | 70% | 1007.9 hPa | 0 mm | 1.34 m/s, 226° | 238 W/m² | - |
| 1788341774 | 31.67° C | 69% | 1007.7 hPa | 0 mm | 1.79 m/s, 301° | 232 W/m² | - |
| 1788341713 | 31.67° C | 68% | 1007.8 hPa | 0 mm | 2.68 m/s, 208° | 259 W/m² | - |
| 1788341652 | 31.67° C | 69% | 1007.8 hPa | 0 mm | 2.24 m/s, 175° | 283 W/m² | - |
| 1788341593 | 31.11° C | 69% | 1007.7 hPa | 0 mm | 1.79 m/s, 294° | 873 W/m² | - |
| 1788341531 | 31.11° C | 69% | 1007.7 hPa | 0 mm | 0.89 m/s, 200° | 855 W/m² | - |
| 1788341481 | 31.11° C | 69% | 1007.7 hPa | 0 mm | 2.24 m/s, 249° | 860 W/m² | - |
| 1788341409 | 31.11° C | 68% | 1008.1 hPa | 0 mm | 1.79 m/s, 208° | 870 W/m² | - |
| 1788341348 | 30.56° C | 69% | 1007.9 hPa | 0 mm | 1.34 m/s, 121° | 896 W/m² | - |
| 1788341287 | 30.56° C | 70% | 1007.9 hPa | 0 mm | 2.68 m/s, 247° | 966 W/m² | - |
| 1788341226 | 30.56° C | 71% | 1007.9 hPa | 0 mm | 1.79 m/s, 342° | 1100 W/m² | - |
| 1788341165 | 30.56° C | 70% | 1008.1 hPa | 0 mm | 1.34 m/s, 270° | 266 W/m² | - |
| 1788341104 | 30.56° C | 71% | 1007.9 hPa | 0 mm | 2.24 m/s, 268° | 918 W/m² | - |
| 1788341043 | 30.56° C | 70% | 1007.9 hPa | 0 mm | 1.79 m/s, 284° | 927 W/m² | - |
| 1788340982 | 30.56° C | 69% | 1007.9 hPa | 0 mm | 2.68 m/s, 265° | 951 W/m² | - |
| 1788340921 | 30.56° C | 69% | 1008.1 hPa | 0 mm | 2.68 m/s, 258° | 280 W/m² | - |
| 1788340860 | 30.56° C | 69% | 1007.8 hPa | 0 mm | 2.24 m/s, 309° | 240 W/m² | - |
| 1788340799 | 30.56° C | 70% | 1007.8 hPa | 0 mm | 0.45 m/s, 287° | 937 W/m² | - |
* Rain latest hour (hover to see other rain measurements)
** Current wind speed in m/s (hover to see current wind gust speed)